Location: Walnut Hills Mobile Home Park
(34.0445°N, 117.8184°W)
Time: 03:13:15
(UTC+00:00)

SL-16 R/B - Pass Details

Date: 17 December 2025
Orbit: 841 x 845 km, 71.0° (Epoch: 15 January)

Event Time Altitude Azimuth Distance (km) Brightness Sun altitude
Exits shadow 13:38:24 14° 252° (WSW) 2,201 3.9 -14.6°
Drops below altitude 10° 13:40:22 10° 231° (SW) 2,457 4.3 -14.2°
Sets 13:44:00 0° 207° (SSW) 3,386 5.3 -13.5°
